Total_Precipitation_Accumulation
1.30 1.57 1.42 1.00 0.93 0.81 0.72 0.76 0.63 0.43 0.40 0.55 0.56 0.46 0.35 0.33 0.39 0.46 0.51 0.58 0.56 0.63 0.69 0.75 0.87 1.05 1.25 1.31 1.35 1.50 1.56 1.72 1.95 2.19 2.38 2.43 2.48 2.44 2.42 2.37 2.37 2.34 2.36 2.36
1.44 1.28 0.75 0.56 0.65 0.77 0.83 0.92 0.72 0.49 0.40 0.58 0.59 0.49 0.36 0.36 0.41 0.47 0.48 0.57 0.61 0.63 0.71 0.81 0.91 1.05 1.30 1.38 1.38 1.50 1.63 1.73 1.78 1.91 2.10 2.21 2.37 2.44 2.42 2.33 2.35 2.31 2.26 2.25
1.13 0.76 0.44 0.64 0.82 0.98 0.92 0.83 0.69 0.63 0.58 0.66 0.74 0.70 0.43 0.39 0.38 0.44 0.50 0.57 0.68 0.72 0.74 0.80 0.90 1.03 1.30 1.46 1.48 1.51 1.60 1.75 1.83 1.95 2.18 2.33 2.56 2.65 2.69 2.49 2.34 2.28 2.28 2.18
0.83 0.50 0.49 0.76 0.90 1.01 0.97 0.56 0.58 0.68 1.01 1.13 0.94 1.09 0.54 0.39 0.39 0.45 0.52 0.56 0.69 0.75 0.75 0.82 0.84 0.96 1.16 1.34 1.47 1.55 1.67 1.79 1.82 2.01 2.22 2.25 2.41 2.47 2.40 2.29 2.22 2.15 2.21 2.22
0.97 0.56 0.56 0.72 0.66 0.75 0.80 0.51 0.65 0.82 1.13 1.33 0.99 1.08 0.61 0.35 0.43 0.45 0.52 0.54 0.64 0.74 0.72 0.80 0.82 0.83 0.97 1.14 1.34 1.50 1.70 1.85 1.88 1.93 2.12 2.20 2.17 2.24 2.35 2.39 2.34 2.25 2.21 2.19
0.76 0.53 0.61 0.56 0.44 0.55 0.73 0.86 1.06 1.25 1.81 2.09 0.87 0.84 0.67 0.54 0.63 0.53 0.50 0.56 0.65 0.73 0.77 0.80 0.79 0.78 0.90 1.07 1.25 1.41 1.61 1.77 1.87 1.87 1.98 2.16 2.14 2.13 2.25 2.42 2.46 2.38 2.29 2.22
0.94 0.69 0.58 0.52 0.70 0.87 1.16 1.79 2.68 2.86 2.86 1.73 0.49 0.64 0.75 0.56 0.55 0.63 0.63 0.65 0.68 0.72 0.79 0.85 0.74 0.78 0.84 0.95 1.13 1.31 1.52 1.62 1.74 1.79 1.85 1.92 2.06 2.07 2.06 2.11 2.21 2.36 2.31 2.19
1.09 0.92 0.66 0.60 0.79 1.12 1.25 1.60 2.19 2.16 1.46 0.69 0.39 0.63 0.66 0.47 0.41 0.44 0.50 0.62 0.66 0.68 0.74 0.80 0.77 0.79 0.83 0.86 0.99 1.16 1.30 1.50 1.67 1.76 1.78 1.81 1.89 2.03 1.98 1.97 1.94 2.05 2.11 1.99
1.14 0.80 0.47 0.44 0.47 0.73 1.13 1.26 1.14 1.58 1.13 0.76 0.61 0.55 0.45 0.24 0.25 0.32 0.41 0.55 0.70 0.77 0.80 0.78 0.79 0.82 0.80 0.87 0.94 1.09 1.18 1.33 1.56 1.74 1.81 1.80 1.83 1.89 1.90 1.87 1.88 1.88 1.91 1.93
1.29 1.04 0.49 0.42 0.58 0.79 0.91 1.11 1.41 2.05 1.75 1.01 0.61 0.55 0.63 0.44 0.43 0.40 0.47 0.57 0.72 0.83 0.90 0.88 0.83 0.89 0.87 0.89 0.94 1.00 1.14 1.24 1.40 1.63 1.85 1.86 1.81 1.77 1.83 1.90 1.92 1.88 1.84 1.87
1.26 1.36 0.83 0.69 0.93 1.03 1.05 1.40 1.74 1.85 1.44 1.19 0.79 0.74 0.76 0.65 0.62 0.57 0.56 0.61 0.72 0.82 0.90 0.86 0.79 0.81 0.86 0.88 0.97 1.02 1.10 1.21 1.33 1.45 1.65 1.79 1.81 1.82 1.84 1.86 1.82 1.85 1.84 1.84
1.21 1.60 1.11 0.64 0.58 0.59 0.90 1.23 1.53 1.90 1.40 0.91 0.86 0.78 0.59 0.55 0.58 0.56 0.56 0.57 0.63 0.73 0.80 0.80 0.74 0.75 0.82 0.92 0.99 1.07 1.11 1.12 1.22 1.35 1.48 1.63 1.76 1.81 1.85 1.80 1.79 1.83 1.84 1.82
1.78 2.30 1.89 1.21 0.97 0.90 1.04 0.97 1.08 1.37 1.38 0.95 0.82 0.69 0.41 0.37 0.39 0.42 0.50 0.55 0.58 0.67 0.76 0.80 0.81 0.78 0.82 0.91 0.99 1.06 1.12 1.07 1.12 1.32 1.45 1.57 1.68 1.71 1.75 1.68 1.71 1.86 1.92 1.89
2.23 2.41 1.68 1.32 1.06 1.01 0.96 0.75 0.78 1.31 1.63 0.91 0.53 0.50 0.37 0.33 0.36 0.41 0.51 0.54 0.56 0.61 0.69 0.79 0.90 0.86 0.80 0.85 0.92 0.96 1.06 1.11 1.12 1.21 1.39 1.51 1.62 1.59 1.57 1.59 1.57 1.68 1.82 1.89
1.97 1.99 0.92 0.52 0.43 0.54 0.62 0.56 0.60 0.87 0.85 0.77 0.46 0.42 0.45 0.43 0.46 0.50 0.54 0.53 0.51 0.53 0.61 0.77 0.89 0.89 0.90 0.92 0.95 0.93 0.96 1.09 1.17 1.15 1.26 1.35 1.47 1.56 1.52 1.51 1.55 1.63 1.71 1.71
1.79 1.80 0.94 0.54 0.34 0.43 0.51 0.42 0.44 0.50 0.47 0.44 0.32 0.36 0.40 0.40 0.38 0.40 0.41 0.46 0.50 0.51 0.57 0.64 0.74 0.82 0.93 1.01 1.03 1.01 0.98 1.04 1.16 1.15 1.21 1.26 1.41 1.54 1.52 1.46 1.53 1.66 1.76 1.73
1.77 1.79 1.58 0.91 0.39 0.69 0.77 0.50 0.45 0.48 0.46 0.42 0.48 0.48 0.40 0.36 0.38 0.44 0.45 0.47 0.51 0.51 0.53 0.55 0.66 0.80 0.90 1.00 1.03 1.04 1.02 1.05 1.15 1.18 1.20 1.26 1.40 1.47 1.52 1.49 1.52 1.63 1.74 1.75
1.50 1.74 2.17 1.50 1.00 1.32 0.72 0.39 0.38 0.44 0.47 0.45 0.45 0.41 0.41 0.44 0.46 0.51 0.51 0.54 0.54 0.55 0.57 0.57 0.65 0.78 0.82 0.90 0.96 0.99 0.96 1.09 1.18 1.19 1.19 1.26 1.36 1.40 1.52 1.54 1.53 1.65 1.72 1.66
0.87 1.65 2.46 2.04 1.41 0.74 0.41 0.37 0.49 0.59 0.60 0.48 0.39 0.31 0.31 0.35 0.41 0.51 0.47 0.51 0.56 0.56 0.60 0.62 0.66 0.75 0.74 0.82 0.89 0.95 0.92 1.01 1.12 1.18 1.13 1.19 1.30 1.37 1.45 1.50 1.55 1.63 1.71 1.66
0.92 1.64 2.68 2.25 1.63 0.80 0.51 0.33 0.39 0.54 0.76 0.46 0.36 0.36 0.35 0.40 0.58 0.58 0.51 0.50 0.49 0.48 0.53 0.62 0.64 0.67 0.70 0.75 0.81 0.87 0.92 0.96 1.08 1.13 1.04 1.11 1.21 1.29 1.40 1.45 1.51 1.57 1.58 1.59
1.40 2.19 2.49 1.80 1.47 0.63 0.40 0.32 0.38 0.81 0.91 0.49 0.43 0.45 0.47 0.58 0.67 0.58 0.53 0.54 0.55 0.53 0.54 0.58 0.59 0.64 0.70 0.75 0.77 0.82 0.90 0.97 1.04 1.11 1.03 1.08 1.14 1.22 1.34 1.44 1.44 1.51 1.55 1.55
1.03 1.44 1.43 1.33 1.53 0.79 0.40 0.45 0.79 0.93 0.55 0.46 0.43 0.43 0.46 0.47 0.44 0.43 0.46 0.54 0.62 0.60 0.56 0.59 0.61 0.63 0.67 0.70 0.75 0.78 0.83 0.90 1.00 1.06 1.04 1.11 1.16 1.19 1.26 1.37 1.38 1.40 1.51 1.57
0.76 1.02 1.15 1.10 0.94 0.63 0.53 0.65 0.69 0.59 0.51 0.42 0.41 0.41 0.45 0.43 0.42 0.46 0.49 0.55 0.64 0.66 0.64 0.64 0.66 0.64 0.66 0.70 0.75 0.83 0.85 0.88 1.00 1.05 1.04 1.10 1.19 1.23 1.26 1.30 1.33 1.37 1.45 1.53
0.61 0.61 0.81 0.75 0.54 0.42 0.41 0.42 0.41 0.40 0.42 0.39 0.39 0.41 0.44 0.46 0.43 0.49 0.51 0.56 0.62 0.65 0.69 0.71 0.72 0.70 0.70 0.72 0.77 0.86 0.90 0.90 1.00 1.03 1.03 1.09 1.15 1.21 1.26 1.24 1.19 1.22 1.33 1.47
0.51 0.56 0.64 0.58 0.39 0.37 0.34 0.34 0.35 0.33 0.30 0.30 0.31 0.33 0.38 0.42 0.45 0.50 0.54 0.58 0.65 0.67 0.70 0.72 0.75 0.77 0.78 0.75 0.81 0.88 0.92 0.92 1.00 0.98 0.96 1.03 1.06 1.15 1.26 1.25 1.20 1.20 1.20 1.40
0.39 0.50 0.63 0.57 0.43 0.52 0.42 0.35 0.35 0.34 0.32 0.34 0.34 0.32 0.30 0.36 0.43 0.47 0.50 0.54 0.64 0.69 0.70 0.71 0.73 0.77 0.83 0.82 0.84 0.90 0.94 0.94 0.96 0.97 0.94 0.98 1.02 1.07 1.16 1.20 1.26 1.39 1.37 1.40